{"data":{"norad_id":60911,"intl_designator":"2024-154J","name":"STARLINK-11190 [DTC]","alt_names":[],"object_type":"PAYLOAD","status":"ACTIVE","operator":null,"country":"US","launch_date":"2024-08-31","launch_site_code":"AFETR","launch_vehicle":null,"mission":null,"orbit_class":"UNKNOWN","rcs_meters":null,"size_class":null,"mass_kg":null,"dimensions":null,"purposes":["comms"],"wikipedia_slug":null,"has_3d_model":false,"image_url":null,"decayed_at":null,"tle_current":{"epoch":"2026-09-21T03:38:55.954464Z","epoch_age_seconds":132490,"freshness":"FRESH","line1":"1 60911U 24154J   26264.15203651  .00000059  00000+0  53366-5 0  9997","line2":"2 60911  53.1565 247.7224 0000728  81.2442 278.8659 15.69710812119208","mean_motion":15.69710812,"eccentricity":7.28e-5,"inclination_deg":53.1565,"raan_deg":247.7224,"arg_perigee_deg":81.2442,"mean_anomaly_deg":278.8659,"bstar":5.3366e-6,"rev_number":11920,"period_min":91.736642761941,"perigee_km":359.23391047573,"apogee_km":360.21494309947,"semimajor_km":6737.8614267876,"source":"CELESTRAK","updated_at":"2026-09-22T09:00:49.284297Z"}}}